Regional Weather Roundup
Issued by NWS State College, PA

Home | Current Version | Previous Version | Text Only | Print | Product List | Glossary On
Versions: 1 2 3 4 5 6 7 8 9 10 11 12 13 14 15 16 17 18 19 20 21 22 23 24 25 26 27 28 29 30 31 32 33 34 35 36 37 38 39 40 41 42 43 44 45 46 47 48 49 50
000
ASUS41 KCTP 190310
RWRCTP

REGIONAL WEATHER ROUNDUP
NATIONAL WEATHER SERVICE STATE COLLEGE PA
1000 PM EST THU DEC 18 2014

Note: "fair" indicates few or no clouds below 12,000 feet with no
significant weather and/or obstructions to visibility.

* = STATION THAT DOES NOT REPORT PRECIPITATION /E.G. RAIN...SNOW...ETC/
    THUNDER OR FOG.

PAZ002>004-007>009-013>016-020>023-029>032-190400-
WESTERN PENNSYLVANIA

CITY           SKY/WX    TMP DP  RH WIND       PRES   REMARKS
ERIE           CLOUDY    32  26  78 W8G17     30.11F
MEADVILLE      CLOUDY    28  25  88 W5        30.08F FOG
FRANKLIN*      CLOUDY    27  23  86 W8        30.09F
NEW CASTLE       N/A     27  26  96 SW7       30.14F FOG
BEAVER COUNTY  NOT AVBL
BUTLER*        CLOUDY    27  23  86 W6        30.13F
PITTSBURGH INT CLOUDY    28  21  75 W8        30.13F
PITTSBURGH     CLOUDY    27  19  72 SW9       30.12F
INDIANA*       CLOUDY    28  25  86 W9        30.13S
LATROBE        CLOUDY    28  23  80 SW12      30.15S
WASHINGTON CO* NOT AVBL
$$

PAZ004>006-010>012-017>019-024>028-033>037-041-042-045-046-049>053-190400-
CENTRAL PENNSYLVANIA

CITY           SKY/WX    TMP DP  RH WIND       PRES   REMARKS
BRADFORD       CLOUDY    26  23  88 W10       29.99F FOG
DUBOIS         CLOUDY    26  24  92 W9        30.04S
CLEARFIELD     CLOUDY    28  23  81 W7        30.05F
JOHNSTOWN      CLOUDY    23  19  85 W12       30.03S WCI  12
ALTOONA        CLOUDY    28  22  78 NW13G21   30.07S
STATE COLLEGE  CLOUDY    30  24  78 W5        30.06F
WILLIAMSPORT   CLOUDY    34  25  69 W9        30.04S
SELINSGROVE    CLOUDY    35  24  64 W8        30.07F
FT INDIANTOWN  CLOUDY    35  24  66 W8        30.06S
CAPITAL CITY   CLOUDY    35  24  64 NW8       30.08F
HARRISBURG     CLOUDY    34  25  69 NW10      30.07F
YORK           CLOUDY    34  24  67 NW6       30.07F
$$

PAZ038>040-043-044-047-048-054-055-060>062-067>071-190400-
EASTERN PENNSYLVANIA

CITY           SKY/WX    TMP DP  RH WIND       PRES   REMARKS
SCRANTON       CLOUDY    34  24  67 W7        29.99S
MOUNT POCONO   CLOUDY    30  22  72 NW12G21   29.93R
ALLENTOWN      CLOUDY    37  25  61 W8        30.01F
QUAKERTOWN*    CLOUDY    36  27  69 NW5       30.02F
READING        CLOUDY    36  25  64 W14       30.03F
LANCASTER      CLOUDY    34  24  67 NW10      30.06S
COATESVILLE    CLOUDY    36  28  75 NW9       30.05R
POTTSTOWN      CLOUDY    35  25  66 W7        30.04F
BLUE BELL      CLOUDY    37  28  70 W3        30.02F
DOYLESTOWN     CLOUDY    33  26  75 W6        30.00F
WILLOW GROVE   NOT AVBL
NORTH PHILA    CLOUDY    38  24  57 W8        30.05F
PHILADELPHIA   CLOUDY    38  25  59 W12       30.06S
$$


USA.gov is the U.S. government's official web portal to all federal, state and local government web resources and services.